Location: Hamayl? Da??
(36.7028°N, 30.1716°E)
Time: 13:24:42
(UTC+00:00)

SPOT 5 - Pass Details

Date: 04 August 2024
Orbit: 619 x 808 km, 98.1° (Epoch: 12 September)

Event Time Altitude Azimuth Distance (km) Brightness Sun altitude
Exits shadow 17:41:12 10° 117° (ESE) 2,411 4.9 -7.9°
Reaches altitude 10° 17:41:20 10° 116° (ESE) 2,371 4.8 -7.9°
Maximum altitude 17:45:20 22° 67° (ENE) 1,687 4.5 -8.6°
Drops below altitude 10° 17:49:22 10° 17° (NNE) 2,400 5.7 -9.3°
Sets 17:52:10 0° 3° (N) 3,330 6.7 -9.8°
